Find Starlink 1554

NORAD ID: 46055 Int'l Des: 2020-055 Owner: SPXS Country: US Constellation: starlink operational
LEOCIRCULAR

現在のビュー

3D地球を読み込み中...

About Starlink 1554

Starlink 1554 (NORAD 46055) is a starlink constellation satellite (v1.0) launched Aug 7, 2020 by SPXS of US. It operates in LEO, CIRCULAR orbit with a mass of 260.00 kg.

次回通過

Passes for default location (London). Set your location on the main map for personalized predictions.

高度履歴

Loading altitude history...

軌道要素

1 46055U 20055AE 26254.48496289 .00000470 00000-0 26924-4 0 9999
2 46055 53.1612 329.3986 0001267 68.8397 291.2740 15.31693183337544
Epoch: Sep 11, 2026 • Age: 36 hours

現在のステータス

高度 479.3 km
遠地点 / 近地点 N/A
速度 7.63 km/s
衛星直下点 -27.60°S, 45.03°W
打ち上げ日 Aug 7, 2020
運用期間 6 years
タイプ internet

技術仕様

分類 Payload
質量 260.00 kg
乾燥質量 248.00 kg
総質量 260.00 kg
長さ 0.20 m
直径 2.80 m
スパン 9.00 m
形状 Box + pan
製造者 SPXS
バスタイプ Starlink
フェーズステータス In Orbit
所有者/国 SPXS/US

Most Searched